Meath Environmental Platform

Observations for Trim Market St

Time AQI Temp °C Hum % Pres Pa CO μg/m³ H₂S μg/m³ NO μg/m³ NO₂ μg/m³ O₃ μg/m³ SO₂ μg/m³ PM1 μg/m³ PM2.5 μg/m³ PM10 μg/m³
Thursday 13 August 2026
06:03 2 21.2 74 38,376 0 0 1.56 3.63 38.9 0 4.28 5.27 8.13
06:02 2 21.3 74 38,397 0 0 1.87 2.24 40.55 0 2.14 3.83 6.32
06:01 2 21.3 74 38,453 0 0 1.83 4.92 40.53 0 2.85 4.79 8.13
05:59 2 21.3 74 38,762 0 0 1.71 17.51 29.74 0 2.14 3.84 6.32
05:58 2 21.3 74 38,843 0 0 1.62 2.72 40.44 0 3.56 4.8 8.13
05:57 2 21.3 74 38,901 0 0 1.26 3.2 39.02 0 0 1.91 3.91
05:56 2 21.3 74 38,962 0 0 1.29 3.21 40.8 0 2.85 5.28 8.13
05:55 2 21.3 74 38,917 0 0 1.32 4.89 40.65 0 2.85 5.28 8.13
05:47 2 21.3 74 37,843 0 0 1.33 2.56 41.04 0 1.43 1.91 3.91
05:42 2 21.3 74 36,880 0 0 1.29 6.12 39.27 0 3.56 5.27 8.13
05:40 2 21.3 74 37,480 0 0 1.24 16.06 43.56 0 3.56 4.8 7.53
05:39 2 21.3 74 38,060 0 0 1.19 5.68 37.31 0 3.56 4.32 6.93
05:38 2 21.3 74 38,247 0 0 1.23 2.56 36.61 0 2.14 3.84 6.32
05:35 2 21.4 74 37,843 0 0 1.35 2.42 39.94 0 2.85 3.84 6.93
05:34 2 21.4 74 37,821 0 0 1.36 7.17 38.78 0 2.14 3.84 6.93
05:33 2 21.3 74 37,883 0 0 1.35 6.48 41.25 0 1.43 3.36 6.32
05:32 2 21.4 74 37,892 0 0 1.39 2.59 41.22 0 2.85 3.83 6.32
05:31 2 21.4 74 37,829 0 0 1.45 2.26 39.52 0 2.85 4.8 7.53
05:30 2 21.3 74 37,834 0 0 1.32 2.42 39.38 0 2.85 4.8 8.13
05:29 2 21.4 74 37,899 0 0 1.35 5.62 40.14 0 3.56 5.28 8.13